COSMOS 2251 DEB

Satellite information

Favourite Embed

Satellite Type and Status

DEBRISIN ORBIT

Key statistics

Satellite COSMOS 2251 DEB at a glance.

Uptime

11868

Days in orbit

Revolutions

≈ 14.3

Per day

Orbit

LEO

Low Earth Orbit

Inclination

74.0

Latest

Satellite identification and parameters

Extended collection of information and parameters for COSMOS 2251 DEB.

Object identification

Identified? True

Debris? True

Object name: COSMOS 2251 DEB

International designator: 1993-036GU

Object number (NORAD): 34009

Object ID (CCSDS): 34009

Country: COMMONWEALTH OF INDEPENDENT STATES (CIS)

Current information (Y/N): Y

RCS size: SMALL

Orbital parameters

Period: 100.473 minutes

Inclination: 74.037 deg

SMA: 7159.12 km

Apoapsis: 799.947 km

Periapsis: 762.024 km

RAAN: 338.1501 deg

Eccentricy: 0.00264854

Argument of periapsis: 47.9858 deg

Mean anomaly: 20.3921 deg

Mean motion: 14.33221332 rev/day

Mean motion (dot): 0.00000572 rev/day2

B* drag term: 0.00021674261 1/REarth

Two-line elements (TLE)

Creation date: Dec. 12, 2025, 10:14 a.m.

Reference frame: TEME

Reference center: EARTH

Epoch: Dec. 12, 2025, 1:48 a.m. UTC

TLE line 0: 0 COSMOS 2251 DEB

TLE line 1: 1 34009U 93036GU 25346.07569003 .00000572 00000-0 21674-3 0 9994

TLE line 2: 2 34009 74.0370 338.1501 0026485 47.9858 20.3921 14.33221332879360

Live tracking on map

Real-time ground track for satellite COSMOS 2251 DEB.

In-orbit conjunctions

A list of the most updated potential collisions computed for object COSMOS 2251 DEB.

Target Orbit TCA Probability of collision Miss distance Type
CZ-6A DEB LEO 2025-01-22 05:44:25 0.0006759138 107.0 (m) DEBRIS
COSMOS 2056 LEO 2024-11-10 13:37:29 0.0002200107 140.0 (m) PAYLOAD
CZ-6A DEB LEO 2024-11-04 02:28:56 0.0001001211 180.0 (m) DEBRIS
PSLV R/B SSO 2024-09-23 14:00:30 0.001206499 175.0 (m) ROCKET BODY

Associated space launch

Military communications satellite. Destroyed in a collision with Iridium 33.

COSMOS 2251 DEB was lifted into orbit during the mission ‘Kosmos-3M | Strela-2M 51’, on board a Kosmos-3M space rocket.

The launch took place on June 16, 1993, 4:17 a.m. from 132/1 (132L).

For more information about the launch, click the button.

Launch to space Kosmos-3M | Strela-2M 51
Kosmos-3M | Strela-2M 51

Agency: N/A

Status: Launch Successful

Launch date: June 16, 1993, 4:17 a.m. UTC

Rocket: Kosmos-3M

Launch pad: 132/1 (132L)

Location: Plesetsk Cosmodrome, Russian Federation

...

Latest news about this satellite

There are no fresh news available about this satellite. Check back as we update our databases every day.


Newsletter sign-up

Weekly statistics, charts and insights to help you stay on top of the space industry.